This is the latest recevied weather packets stored in our database for station/object EA2FT-7. If no packets are shown the sender has not sent any weather packets the latest 1 day(s).
| Time | Temp. | Humidity | Pressure | Rain* | Wind** | Luminosity | Snow |
|---|---|---|---|---|---|---|---|
| 1777826164 | 31.67° C | 31% | 962.3 hPa | - | - | - | - |
| 1777825859 | 30.56° C | 32% | 960.3 hPa | - | - | - | - |
| 1777825559 | 30.56° C | 32% | 960.5 hPa | - | - | - | - |
| 1777825259 | 30.56° C | 32% | 960.6 hPa | - | - | - | - |
| 1777824959 | 31.11° C | 31% | 960.7 hPa | - | - | - | - |
| 1777824644 | 31.11° C | 32% | 960.6 hPa | - | - | - | - |
| 1777824344 | 31.11° C | 31% | 960.5 hPa | - | - | - | - |
| 1777824044 | 31.67° C | 31% | 960.6 hPa | - | - | - | - |
| 1777823743 | 32.22° C | 31% | 960.6 hPa | - | - | - | - |
| 1777823443 | 32.78° C | 31% | 960.5 hPa | - | - | - | - |
| 1777822520 | 31.67° C | 32% | 965.8 hPa | - | - | - | - |
| 1777822221 | 32.22° C | 31% | 965.6 hPa | - | - | - | - |
| 1777821921 | 33.33° C | 30% | 965.8 hPa | - | - | - | - |
| 1777821620 | 33.33° C | 31% | 965 hPa | - | - | - | - |
| 1777820397 | 30° C | 34% | 989 hPa | - | - | - | - |
| 1777819100 | 28.33° C | 35% | 988.4 hPa | - | - | - | - |
| 1777818800 | 28.33° C | 34% | 988.7 hPa | - | - | - | - |
| 1777818500 | 28.33° C | 35% | 988.9 hPa | - | - | - | - |
| 1777817893 | 28.33° C | 35% | 989.2 hPa | - | - | - | - |
| 1777817593 | 28.33° C | 35% | 989.3 hPa | - | - | - | - |
| 1777817293 | 28.89° C | 35% | 989.4 hPa | - | - | - | - |
| 1777816993 | 28.89° C | 34% | 989.4 hPa | - | - | - | - |
| 1777816693 | 28.89° C | 35% | 989.3 hPa | - | - | - | - |
| 1777816393 | 28.89° C | 34% | 989.4 hPa | - | - | - | - |
| 1777816093 | 28.89° C | 34% | 989.4 hPa | - | - | - | - |
* Rain since midnight (hover to see other rain measurements)
** Current wind speed in m/s (hover to see current wind gust speed)